Location: Unspecified
(56.5167°N, 0.0000°E)
Time: 01:11:00
(UTC+02:00)

ISS - Visible Passes

Search period start: 22 October 2019 00:00
Search period end: 31 October 2019 23:00
Orbit: 411 x 421 km, 51.6° (Epoch: 21 October)

Date Brightness Start Highest point End Pass type
(mag) Time Alt. Az. Time Alt. Az. Time Alt. Az.
27 Oct -1.0 06:36:12 10° S 06:38:21 16° SSE 06:40:30 10° ESE visible
28 Oct -0.9 05:48:35 10° S 05:49:58 12° SE 05:51:21 10° ESE visible
29 Oct -1.7 06:34:40 10° SW 06:37:27 24° SSE 06:40:14 10° ESE visible
30 Oct -1.6 05:47:44 16° S 05:48:58 20° SSE 05:51:29 10° ESE visible
30 Oct -2.4 07:22:02 10° WSW 07:25:08 34° S 07:28:14 10° ESE visible
31 Oct -1.0 05:01:13 14° SE 05:01:13 14° SE 05:02:34 10° ESE visible
31 Oct -2.3 06:34:07 14° SW 06:36:36 32° S 06:39:37 10° ESE visible
